STARLINK-32315, 60740

Orbit data source: Space-Track

STARLINK-32315, 60740 is a payload satellite owned by SpaceX/Seattle (US) in LEO that was launched on Wed, 28 Aug 2024 UTC via an FALCON 9 launch vehicle from the Air Force Eastern Test Range (AFETR). Payload-class satellites include a variety of spacecraft equipped with specific instruments for various scientific and technological missions. These include communications satellites like Starlink; space stations such as the ISS; scientific satellites like the Hubble; Earth observation satellites from companies like Planet Labs, Umbra, and HawkEye 360; GPS; miniature CubeSats for education and research; and military/defense satellites.

Loading next visibility...
Identifier
60740, 2024-152W
Orbit
LEO
Country
Flag of USUS
Related business
Manufacturer
SpaceX/Seattle
Mission
Operational Commercial Communications
Bus & Motor
STARLINK V2M, Unknown motor
Mass
730 kg wet, ~700 kg dry
Launch date (UTC)
2024-08-28 (2 years ago)
Launch vehicle
FALCON 9
Launch site
Air Force Eastern Test Range (AFETR)
Object type
Payload
Rocket body
Debris
Shape & HBR
Box + 2 Pan, 17.7 m
Radar Cross Section
33.884 m², Large (>1 m²)

Expand to show TLE details & history
Last TLE update: 9 hours ago

TLE from 9 hours ago
0 STARLINK-32315
1 60740U 24152W   26112.15568250 -.00006227  00000-0 -19856-3 0  9996
2 60740  53.1605  66.6754 0001166  70.1330 289.9797 15.30157930 93378
Epoch: 2026-04-22T03:44Z
TLE epoch observation values (Epoch: 2026-04-22T03:44:10.968Z)
Latitude
Longitude
160.40854°
Altitude
475.967 km
Speed
7.629 km/s
True Right ascension
04h 26m 42s
True Declination
0° 00' 00"
Sunlit
Object was in daylight at epoch
Visualization orbit readout
Latitude
Unknown
Longitude
Unknown
Altitude
Unknown
Speed
Unknown
Apparent Right ascension
Unknown
Apparent Declination
Unknown
Sunlit
N/A
Visualization observer readout
Local Sidereal Time
19:20:45
Azimuth
Unknown
Elevation
Unknown
Doppler factor
Unknown
Orbital elements
Apogee altitude
476.396 km
Perigee altitude
474.798 km
Semi-major axis
6,853.734 km
Eccentricity
0.00012
Inclination
53.1605°
RAAN
66.6754°
Arg. of periapsis
70.133°
True anomaly
289.96714°
Mean anomaly
289.9797°
Eccentric anomaly
289.97342°
Mean motion
3.82518 °/min
Orbital period
94.11 mins
BSTAR
-0.00019856
Loading maneuver chart data...
Computing Atmospheric mass density...
Loading historical data...
Loading historical data...
Loading historical data...
Loading historical data...
Loading historical data...
Loading historical data...
Loading historical data...

Documentation

Showing up to 5 results
|